Time,TemperatureF,DewpointF,PressureIn,WindDirection,WindDirectionDegrees,WindSpeedMPH,WindSpeedGustMPH,Humidity,HourlyPrecipIn,Conditions,Clouds,dailyrainin,SoftwareType,DateUTC
2013-03-01 00:00:00,33.1,29.1,-100.00,NW,307,7.0,12.0,85,0.00,,,0.34,meteohub,2013-03-01 05:00:00,
2013-03-01 00:01:00,33.1,29.1,-100.00,NW,310,5.0,12.0,85,0.00,,,0.34,meteohub,2013-03-01 05:01:00,
2013-03-01 00:06:00,32.9,29.1,-100.00,NW,318,8.0,12.0,86,0.00,,,0.00,meteohub,2013-03-01 05:06:00,
2013-03-01 00:11:00,32.9,29.1,-100.00,NW,317,2.0,12.0,86,0.00,,,0.00,meteohub,2013-03-01 05:11:00,
2013-03-01 00:16:00,32.7,28.8,-100.00,NW,308,7.0,10.0,85,0.00,,,0.00,meteohub,2013-03-01 05:16:00,
2013-03-01 00:21:00,32.7,28.8,-100.00,WNW,293,5.0,11.0,85,0.00,,,0.00,meteohub,2013-03-01 05:21:00,
2013-03-01 00:26:00,32.7,28.8,-100.00,WNW,303,6.0,11.0,85,0.00,,,0.00,meteohub,2013-03-01 05:26:00,
2013-03-01 00:31:00,32.7,28.8,-100.00,WNW,296,9.0,11.0,85,0.00,,,0.00,meteohub,2013-03-01 05:31:00,
2013-03-01 00:36:00,32.7,28.8,-100.00,WNW,297,3.0,11.0,85,0.00,,,0.00,meteohub,2013-03-01 05:36:00,
2013-03-01 00:41:00,32.7,28.8,-100.00,NW,310,5.0,11.0,85,0.00,,,0.00,meteohub,2013-03-01 05:41:00,
2013-03-01 00:46:00,32.7,28.8,-100.00,NNW,328,4.0,11.0,85,0.00,,,0.00,meteohub,2013-03-01 05:46:00,
2013-03-01 00:51:00,32.7,28.8,-100.00,NW,314,2.0,10.0,85,0.00,,,0.00,meteohub,2013-03-01 05:51:00,
2013-03-01 00:56:00,32.7,28.4,-100.00,NNW,329,6.0,10.0,84,0.00,,,0.00,meteohub,2013-03-01 05:56:00,
2013-03-01 01:01:00,32.7,28.4,-100.00,WNW,290,7.0,12.0,84,0.00,,,0.00,meteohub,2013-03-01 06:01:00,
2013-03-01 01:06:00,32.7,28.4,-100.00,WNW,294,9.0,12.0,84,0.00,,,0.00,meteohub,2013-03-01 06:06:00,
2013-03-01 01:11:00,32.7,28.4,-100.00,NW,308,4.0,12.0,84,0.00,,,0.00,meteohub,2013-03-01 06:11:00,
2013-03-01 01:16:00,32.7,28.4,-100.00,NW,311,7.0,10.0,84,0.00,,,0.00,meteohub,2013-03-01 06:16:00,
2013-03-01 01:21:00,32.7,28.4,-100.00,NW,321,6.0,11.0,84,0.00,,,0.00,meteohub,2013-03-01 06:21:00,
2013-03-01 01:26:00,32.5,28.2,-100.00,NW,326,7.0,11.0,84,0.00,,,0.00,meteohub,2013-03-01 06:26:00,
2013-03-01 01:31:00,32.5,28.6,-100.00,NNE,13,6.0,11.0,85,0.00,,,0.00,meteohub,2013-03-01 06:31:00,
2013-03-01 01:36:00,32.5,28.2,-100.00,NW,324,9.0,11.0,84,0.00,,,0.00,meteohub,2013-03-01 06:36:00,
2013-03-01 01:41:00,32.5,28.2,-100.00,NW,320,6.0,11.0,84,0.00,,,0.00,meteohub,2013-03-01 06:41:00,
2013-03-01 01:46:00,32.4,28.0,-100.00,WNW,301,9.0,11.0,84,0.00,,,0.00,meteohub,2013-03-01 06:46:00,
2013-03-01 01:51:00,32.4,28.4,-100.00,NW,326,6.0,11.0,85,0.00,,,0.00,meteohub,2013-03-01 06:51:00,
2013-03-01 01:56:00,32.4,28.0,-100.00,NW,307,4.0,10.0,84,0.00,,,0.00,meteohub,2013-03-01 06:56:00,
2013-03-01 02:01:00,32.4,28.4,-100.00,NW,307,6.0,11.0,85,0.00,,,0.00,meteohub,2013-03-01 07:01:00,
2013-03-01 02:06:00,32.4,28.4,-100.00,NW,304,6.0,11.0,85,0.00,,,0.00,meteohub,2013-03-01 07:06:00,
2013-03-01 02:11:00,32.2,28.2,-100.00,NW,307,5.0,10.0,85,0.00,,,0.00,meteohub,2013-03-01 07:11:00,
2013-03-01 02:16:00,32.2,28.2,-100.00,NW,309,6.0,10.0,85,0.00,,,0.00,meteohub,2013-03-01 07:16:00,
2013-03-01 02:21:00,32.2,28.2,-100.00,WNW,302,4.0,10.0,85,0.00,,,0.00,meteohub,2013-03-01 07:21:00,
2013-03-01 02:26:00,32.2,28.2,-100.00,NNW,332,5.0,8.0,85,0.00,,,0.00,meteohub,2013-03-01 07:26:00,
2013-03-01 02:31:00,32.0,27.7,-100.00,WNW,300,4.0,10.0,84,0.00,,,0.00,meteohub,2013-03-01 07:31:00,
2013-03-01 02:36:00,32.0,27.7,-100.00,NW,313,5.0,10.0,84,0.00,,,0.00,meteohub,2013-03-01 07:36:00,
2013-03-01 02:41:00,31.8,27.5,-100.00,NW,314,5.0,9.0,84,0.00,,,0.00,meteohub,2013-03-01 07:41:00,
2013-03-01 02:46:00,31.8,27.5,-100.00,WNW,299,4.0,9.0,84,0.00,,,0.00,meteohub,2013-03-01 07:46:00,
2013-03-01 02:51:00,31.8,27.9,-100.00,WNW,298,3.0,11.0,85,0.00,,,0.00,meteohub,2013-03-01 07:51:00,
2013-03-01 02:56:00,31.8,27.9,-100.00,NW,314,5.0,11.0,85,0.00,,,0.00,meteohub,2013-03-01 07:56:00,
2013-03-01 03:01:00,31.6,27.9,-100.00,WNW,302,2.0,11.0,86,0.00,,,0.00,meteohub,2013-03-01 08:01:00,
2013-03-01 03:06:00,31.5,27.5,-100.00,NNW,341,2.0,9.0,85,0.00,,,0.00,meteohub,2013-03-01 08:06:00,
2013-03-01 03:11:00,31.3,27.3,-100.00,WNW,296,3.0,9.0,85,0.00,,,0.00,meteohub,2013-03-01 08:11:00,
2013-03-01 03:16:00,31.3,27.5,-100.00,WNW,295,5.0,8.0,86,0.00,,,0.00,meteohub,2013-03-01 08:16:00,
2013-03-01 03:22:00,31.3,27.5,-100.00,NNW,340,6.0,8.0,86,0.00,,,0.00,meteohub,2013-03-01 08:22:00,
2013-03-01 03:27:00,31.1,27.3,-100.00,WNW,286,2.0,10.0,86,0.00,,,0.00,meteohub,2013-03-01 08:27:00,
2013-03-01 03:32:00,30.9,27.1,-100.00,NW,319,2.0,10.0,86,0.00,,,0.00,meteohub,2013-03-01 08:32:00,
2013-03-01 03:37:00,30.9,27.1,-100.00,NW,323,5.0,10.0,86,0.00,,,0.00,meteohub,2013-03-01 08:37:00,
2013-03-01 03:42:00,30.9,27.1,-100.00,WNW,289,2.0,8.0,86,0.00,,,0.00,meteohub,2013-03-01 08:42:00,
2013-03-01 03:47:00,30.9,27.1,-100.00,WNW,296,3.0,8.0,86,0.00,,,0.00,meteohub,2013-03-01 08:47:00,
2013-03-01 03:52:00,30.7,26.8,-100.00,WNW,303,4.0,9.0,85,0.00,,,0.00,meteohub,2013-03-01 08:52:00,
2013-03-01 03:57:00,30.7,27.1,-100.00,NW,306,2.0,9.0,86,0.00,,,0.00,meteohub,2013-03-01 08:57:00,
2013-03-01 04:02:00,30.6,26.6,-100.00,NW,311,4.0,9.0,85,0.00,,,0.00,meteohub,2013-03-01 09:02:00,
2013-03-01 04:07:00,30.6,27.0,-100.00,WNW,297,2.0,9.0,86,0.00,,,0.00,meteohub,2013-03-01 09:07:00,
2013-03-01 04:12:00,30.6,26.6,-100.00,West,281,3.0,9.0,85,0.00,,,0.00,meteohub,2013-03-01 09:12:00,
2013-03-01 04:17:00,30.4,26.8,-100.00,WNW,290,2.0,8.0,86,0.00,,,0.00,meteohub,2013-03-01 09:17:00,
2013-03-01 04:22:00,30.4,26.8,-100.00,NW,306,2.0,8.0,86,0.00,,,0.00,meteohub,2013-03-01 09:22:00,
2013-03-01 04:27:00,30.4,26.8,-100.00,NW,307,1.0,8.0,86,0.00,,,0.00,meteohub,2013-03-01 09:27:00,
2013-03-01 04:32:00,30.4,26.8,-100.00,NW,307,4.0,7.0,86,0.00,,,0.00,meteohub,2013-03-01 09:32:00,
2013-03-01 04:37:00,30.4,26.8,-100.00,NW,309,1.0,7.0,86,0.00,,,0.00,meteohub,2013-03-01 09:37:00,
2013-03-01 04:42:00,30.4,26.4,-100.00,WNW,300,8.0,8.0,85,0.00,,,0.00,meteohub,2013-03-01 09:42:00,
2013-03-01 04:47:00,30.4,26.4,-100.00,NW,304,3.0,8.0,85,0.00,,,0.00,meteohub,2013-03-01 09:47:00,
2013-03-01 04:52:00,30.4,26.8,-100.00,WNW,302,4.0,8.0,86,0.00,,,0.00,meteohub,2013-03-01 09:52:00,
2013-03-01 04:57:00,30.4,26.8,-100.00,WNW,299,2.0,8.0,86,0.00,,,0.00,meteohub,2013-03-01 09:57:00,
2013-03-01 05:02:00,30.2,26.6,-100.00,WNW,291,2.0,7.0,86,0.00,,,0.00,meteohub,2013-03-01 10:02:00,
2013-03-01 05:07:00,30.2,26.6,-100.00,WNW,289,2.0,7.0,86,0.00,,,0.00,meteohub,2013-03-01 10:07:00,
2013-03-01 05:12:00,30.2,26.6,-100.00,WNW,295,3.0,7.0,86,0.00,,,0.00,meteohub,2013-03-01 10:12:00,
2013-03-01 05:17:00,30.2,26.6,-100.00,WNW,289,5.0,7.0,86,0.00,,,0.00,meteohub,2013-03-01 10:17:00,
2013-03-01 05:22:00,30.2,26.6,-100.00,WNW,297,2.0,7.0,86,0.00,,,0.00,meteohub,2013-03-01 10:22:00,
2013-03-01 05:27:00,30.2,26.6,-100.00,NW,307,2.0,7.0,86,0.00,,,0.00,meteohub,2013-03-01 10:27:00,
2013-03-01 05:32:00,30.4,26.8,-100.00,NW,324,2.0,7.0,86,0.00,,,0.00,meteohub,2013-03-01 10:32:00,
2013-03-01 05:37:00,30.4,26.8,-100.00,WNW,296,3.0,7.0,86,0.00,,,0.00,meteohub,2013-03-01 10:37:00,
2013-03-01 05:42:00,30.4,26.8,-100.00,NW,307,6.0,7.0,86,0.00,,,0.00,meteohub,2013-03-01 10:42:00,
2013-03-01 05:48:00,30.4,26.8,-100.00,NW,318,2.0,7.0,86,0.00,,,0.00,meteohub,2013-03-01 10:48:00,
2013-03-01 05:53:00,30.4,26.8,-100.00,WNW,302,4.0,8.0,86,0.00,,,0.00,meteohub,2013-03-01 10:53:00,
2013-03-01 05:58:00,30.2,26.2,-100.00,NW,306,5.0,9.0,85,0.00,,,0.00,meteohub,2013-03-01 10:58:00,
2013-03-01 06:03:00,30.2,26.2,-100.00,NW,308,8.0,9.0,85,0.00,,,0.00,meteohub,2013-03-01 11:03:00,
2013-03-01 06:08:00,30.2,26.2,-100.00,NW,307,7.0,9.0,85,0.00,,,0.00,meteohub,2013-03-01 11:08:00,
2013-03-01 06:13:00,30.2,25.9,-100.00,NW,324,7.0,10.0,84,0.00,,,0.00,meteohub,2013-03-01 11:13:00,
2013-03-01 06:18:00,30.2,26.2,-100.00,NW,325,5.0,10.0,85,0.00,,,0.00,meteohub,2013-03-01 11:18:00,
2013-03-01 06:23:00,30.0,25.7,-100.00,NW,318,2.0,12.0,84,0.00,,,0.00,meteohub,2013-03-01 11:23:00,
2013-03-01 06:28:00,30.0,26.1,-100.00,WNW,300,5.0,12.0,85,0.00,,,0.00,meteohub,2013-03-01 11:28:00,
2013-03-01 06:33:00,30.0,25.7,-100.00,NW,314,6.0,12.0,84,0.00,,,0.00,meteohub,2013-03-01 11:33:00,
2013-03-01 06:38:00,30.0,25.7,-100.00,WNW,298,3.0,12.0,84,0.00,,,0.00,meteohub,2013-03-01 11:38:00,
2013-03-01 06:43:00,30.0,25.7,-100.00,NW,319,2.0,12.0,84,0.00,,,0.00,meteohub,2013-03-01 11:43:00,
2013-03-01 06:48:00,30.0,25.7,-100.00,NW,309,8.0,12.0,84,0.00,,,0.00,meteohub,2013-03-01 11:48:00,
2013-03-01 06:53:00,30.0,25.7,-100.00,NW,319,5.0,10.0,84,0.00,,,0.00,meteohub,2013-03-01 11:53:00,
2013-03-01 06:58:00,30.2,25.9,-100.00,NW,315,8.0,12.0,84,0.00,,,0.00,meteohub,2013-03-01 11:58:00,
2013-03-01 07:03:00,30.0,25.7,-100.00,NNW,336,5.0,12.0,84,0.00,,,0.00,meteohub,2013-03-01 12:03:00,
2013-03-01 07:08:00,30.0,25.7,-100.00,NW,317,8.0,11.0,84,0.00,,,0.00,meteohub,2013-03-01 12:08:00,
2013-03-01 07:13:00,30.0,25.7,-100.00,NW,311,4.0,11.0,84,0.00,,,0.00,meteohub,2013-03-01 12:13:00,
2013-03-01 07:18:00,30.0,25.7,-100.00,NW,313,8.0,11.0,84,0.00,,,0.00,meteohub,2013-03-01 12:18:00,
2013-03-01 07:23:00,30.0,25.7,-100.00,NNW,338,4.0,11.0,84,0.00,,,0.00,meteohub,2013-03-01 12:23:00,
2013-03-01 07:28:00,30.0,25.7,-100.00,NW,309,6.0,11.0,84,0.00,,,0.00,meteohub,2013-03-01 12:28:00,
2013-03-01 07:33:00,30.0,25.7,-100.00,NW,316,7.0,11.0,84,0.00,,,0.00,meteohub,2013-03-01 12:33:00,
2013-03-01 07:38:00,30.0,25.7,-100.00,NNW,334,6.0,11.0,84,0.00,,,0.00,meteohub,2013-03-01 12:38:00,
2013-03-01 07:43:00,30.0,25.7,-100.00,NNW,332,5.0,11.0,84,0.00,,,0.00,meteohub,2013-03-01 12:43:00,
2013-03-01 07:48:00,30.0,25.5,-100.00,NW,316,7.0,12.0,83,0.00,,,0.00,meteohub,2013-03-01 12:48:00,
2013-03-01 07:53:00,29.8,25.5,-100.00,NW,309,3.0,12.0,84,0.00,,,0.00,meteohub,2013-03-01 12:53:00,
2013-03-01 07:59:00,29.8,25.3,-100.00,NW,311,6.0,13.0,83,0.00,,,0.00,meteohub,2013-03-01 12:59:00,
2013-03-01 08:04:00,29.7,24.8,-100.00,NW,326,7.0,13.0,82,0.00,,,0.00,meteohub,2013-03-01 13:04:00,
2013-03-01 08:09:00,29.7,25.2,-100.00,NW,325,3.0,11.0,83,0.00,,,0.00,meteohub,2013-03-01 13:09:00,
2013-03-01 08:14:00,29.7,25.3,-100.00,NW,317,4.0,11.0,84,0.00,,,0.00,meteohub,2013-03-01 13:14:00,
2013-03-01 08:19:00,29.7,25.3,-100.00,WNW,301,2.0,11.0,84,0.00,,,0.00,meteohub,2013-03-01 13:19:00,
2013-03-01 08:24:00,29.7,25.3,-100.00,NW,309,3.0,9.0,84,0.00,,,0.00,meteohub,2013-03-01 13:24:00,
2013-03-01 08:29:00,29.7,25.3,-100.00,NW,304,4.0,9.0,84,0.00,,,0.00,meteohub,2013-03-01 13:29:00,
2013-03-01 08:34:00,29.7,25.3,-100.00,NW,311,3.0,9.0,84,0.00,,,0.00,meteohub,2013-03-01 13:34:00,
2013-03-01 08:39:00,29.7,25.3,-100.00,WNW,285,3.0,8.0,84,0.00,,,0.00,meteohub,2013-03-01 13:39:00,
2013-03-01 08:44:00,29.5,25.0,-100.00,NW,313,7.0,9.0,83,0.00,,,0.00,meteohub,2013-03-01 13:44:00,
2013-03-01 08:49:00,29.3,24.8,-100.00,NW,317,7.0,11.0,83,0.00,,,0.00,meteohub,2013-03-01 13:49:00,
2013-03-01 08:54:00,29.3,25.2,-100.00,NW,324,8.0,11.0,84,0.00,,,0.00,meteohub,2013-03-01 13:54:00,
2013-03-01 08:59:00,29.1,24.6,-100.00,NNW,334,4.0,11.0,83,0.00,,,0.00,meteohub,2013-03-01 13:59:00,
2013-03-01 09:04:00,29.1,24.6,-100.00,NNW,328,4.0,9.0,83,0.00,,,0.00,meteohub,2013-03-01 14:04:00,
2013-03-01 09:09:00,29.1,24.6,-100.00,NW,324,4.0,9.0,83,0.00,,,0.00,meteohub,2013-03-01 14:09:00,
2013-03-01 09:14:00,29.1,24.6,-100.00,NW,309,6.0,9.0,83,0.00,,,0.00,meteohub,2013-03-01 14:14:00,
2013-03-01 09:19:00,28.9,24.4,-100.00,NNW,329,3.0,10.0,83,0.00,,,0.00,meteohub,2013-03-01 14:19:00,
2013-03-01 09:24:00,28.9,24.4,-100.00,NW,324,4.0,10.0,83,0.00,,,0.00,meteohub,2013-03-01 14:24:00,
2013-03-01 09:29:00,29.1,24.6,-100.00,WNW,283,4.0,10.0,83,0.00,,,0.00,meteohub,2013-03-01 14:29:00,
2013-03-01 09:34:00,29.1,24.6,-100.00,NW,311,7.0,9.0,83,0.00,,,0.00,meteohub,2013-03-01 14:34:00,
2013-03-01 09:39:00,28.9,24.4,-100.00,NW,311,6.0,8.0,83,0.00,,,0.00,meteohub,2013-03-01 14:39:00,
2013-03-01 09:44:00,29.1,25.0,-100.00,NNW,333,4.0,10.0,84,0.00,,,0.00,meteohub,2013-03-01 14:44:00,
2013-03-01 09:49:00,29.1,25.0,-100.00,NW,304,5.0,10.0,84,0.00,,,0.00,meteohub,2013-03-01 14:49:00,
2013-03-01 09:54:00,29.1,25.0,-100.00,WNW,283,3.0,8.0,84,0.00,,,0.00,meteohub,2013-03-01 14:54:00,
2013-03-01 09:59:00,29.1,25.0,-100.00,WNW,283,4.0,8.0,84,0.00,,,0.00,meteohub,2013-03-01 14:59:00,
2013-03-01 10:04:00,28.9,24.4,-100.00,WNW,296,6.0,8.0,83,0.00,,,0.00,meteohub,2013-03-01 15:04:00,
2013-03-01 10:09:00,28.9,24.1,-100.00,WNW,302,6.0,8.0,82,0.00,,,0.00,meteohub,2013-03-01 15:09:00,
2013-03-01 10:14:00,28.9,24.4,-100.00,NW,319,6.0,10.0,83,0.00,,,0.00,meteohub,2013-03-01 15:14:00,
2013-03-01 10:19:00,28.9,24.4,-100.00,NW,313,7.0,10.0,83,0.00,,,0.00,meteohub,2013-03-01 15:19:00,
2013-03-01 10:24:00,29.1,24.6,-100.00,NW,306,6.0,10.0,83,0.00,,,0.00,meteohub,2013-03-01 15:24:00,
2013-03-01 10:29:00,29.1,24.6,-100.00,NW,307,5.0,7.0,83,0.00,,,0.00,meteohub,2013-03-01 15:29:00,
2013-03-01 10:34:00,28.9,24.4,-100.00,NW,304,4.0,10.0,83,0.00,,,0.00,meteohub,2013-03-01 15:34:00,
2013-03-01 10:39:00,28.9,24.4,-100.00,West,279,2.0,10.0,83,0.00,,,0.00,meteohub,2013-03-01 15:39:00,
2013-03-01 10:44:00,28.8,23.9,-100.00,NW,306,5.0,10.0,82,0.00,,,0.00,meteohub,2013-03-01 15:44:00,
2013-03-01 10:49:00,28.8,24.6,-100.00,NW,309,8.0,9.0,84,0.00,,,0.00,meteohub,2013-03-01 15:49:00,
2013-03-01 10:54:00,28.8,23.9,-100.00,WNW,294,5.0,9.0,82,0.00,,,0.00,meteohub,2013-03-01 15:54:00,
2013-03-01 10:59:00,28.6,24.1,-100.00,WNW,286,5.0,9.0,83,0.00,,,0.00,meteohub,2013-03-01 15:59:00,
2013-03-01 11:04:00,28.8,23.9,-100.00,NNW,335,6.0,10.0,82,0.00,,,0.00,meteohub,2013-03-01 16:04:00,
2013-03-01 11:09:00,28.8,24.3,-100.00,West,270,2.0,10.0,83,0.00,,,0.00,meteohub,2013-03-01 16:09:00,
2013-03-01 11:15:00,28.9,24.4,-100.00,WNW,283,4.0,9.0,83,0.00,,,0.00,meteohub,2013-03-01 16:15:00,
2013-03-01 11:20:00,28.8,23.9,-100.00,WNW,302,4.0,9.0,82,0.00,,,0.00,meteohub,2013-03-01 16:20:00,
2013-03-01 11:25:00,28.6,23.7,-100.00,West,280,4.0,7.0,82,0.00,,,0.00,meteohub,2013-03-01 16:25:00,
2013-03-01 11:30:00,28.6,24.1,-100.00,West,281,2.0,8.0,83,0.00,,,0.00,meteohub,2013-03-01 16:30:00,
2013-03-01 11:35:00,28.4,23.5,-100.00,West,271,2.0,8.0,82,0.00,,,0.00,meteohub,2013-03-01 16:35:00,
2013-03-01 11:40:00,28.2,23.4,-100.00,WSW,246,4.0,7.0,82,0.00,,,0.00,meteohub,2013-03-01 16:40:00,
2013-03-01 11:45:00,28.2,24.1,-100.00,WNW,293,2.0,7.0,84,0.00,,,0.00,meteohub,2013-03-01 16:45:00,
2013-03-01 11:50:00,28.2,23.4,-100.00,NW,311,2.0,7.0,82,0.00,,,0.00,meteohub,2013-03-01 16:50:00,
2013-03-01 11:55:00,28.2,23.2,-100.00,WNW,298,4.0,7.0,81,0.00,,,0.00,meteohub,2013-03-01 16:55:00,
2013-03-01 12:00:00,28.0,23.0,-100.00,WNW,285,4.0,7.0,81,0.00,,,0.00,meteohub,2013-03-01 17:00:00,
2013-03-01 12:05:00,28.2,23.4,-100.00,NW,306,2.0,7.0,82,0.00,,,0.00,meteohub,2013-03-01 17:05:00,
2013-03-01 12:10:00,28.4,23.0,-100.00,WNW,294,3.0,7.0,80,0.00,,,0.00,meteohub,2013-03-01 17:10:00,
2013-03-01 12:15:00,28.2,22.8,-100.00,West,266,3.0,8.0,80,0.00,,,0.00,meteohub,2013-03-01 17:15:00,
2013-03-01 12:20:00,28.4,23.4,-100.00,WNW,300,6.0,8.0,81,0.00,,,0.00,meteohub,2013-03-01 17:20:00,
2013-03-01 12:25:00,28.4,23.0,-100.00,NW,316,4.0,8.0,80,0.00,,,0.00,meteohub,2013-03-01 17:25:00,
2013-03-01 12:30:00,28.4,22.6,-100.00,WNW,285,1.0,7.0,79,0.00,,,0.00,meteohub,2013-03-01 17:30:00,
2013-03-01 12:35:00,28.6,22.8,-100.00,SW,236,5.0,7.0,79,0.00,,,0.00,meteohub,2013-03-01 17:35:00,
2013-03-01 12:40:00,28.4,22.6,-100.00,WNW,290,3.0,8.0,79,0.00,,,0.00,meteohub,2013-03-01 17:40:00,
2013-03-01 12:45:00,28.6,22.8,-100.00,NW,315,3.0,8.0,79,0.00,,,0.00,meteohub,2013-03-01 17:45:00,
2013-03-01 12:50:00,28.2,22.8,-100.00,West,281,1.0,8.0,80,0.00,,,0.00,meteohub,2013-03-01 17:50:00,
2013-03-01 12:55:00,28.2,22.6,-100.00,West,278,4.0,8.0,79,0.00,,,0.00,meteohub,2013-03-01 17:55:00,
2013-03-01 13:00:00,28.2,22.8,-100.00,WNW,301,2.0,8.0,80,0.00,,,0.00,meteohub,2013-03-01 18:00:00,
2013-03-01 13:05:00,28.2,22.6,-100.00,WNW,285,9.0,9.0,79,0.00,,,0.00,meteohub,2013-03-01 18:05:00,
2013-03-01 13:10:00,28.2,22.6,-100.00,West,259,2.0,9.0,79,0.00,,,0.00,meteohub,2013-03-01 18:10:00,
2013-03-01 13:15:00,28.4,22.5,-100.00,WNW,282,4.0,9.0,78,0.00,,,0.00,meteohub,2013-03-01 18:15:00,
2013-03-01 13:20:00,28.2,22.3,-100.00,West,280,1.0,9.0,78,0.00,,,0.00,meteohub,2013-03-01 18:20:00,
2013-03-01 13:25:00,28.2,22.6,-100.00,WNW,297,3.0,8.0,79,0.00,,,0.00,meteohub,2013-03-01 18:25:00,
2013-03-01 13:30:00,28.4,23.0,-100.00,NW,307,3.0,8.0,80,0.00,,,0.00,meteohub,2013-03-01 18:30:00,
2013-03-01 13:35:00,28.2,22.3,-100.00,WNW,282,1.0,8.0,78,0.00,,,0.00,meteohub,2013-03-01 18:35:00,
2013-03-01 13:40:00,28.4,22.6,-100.00,NW,311,3.0,8.0,79,0.00,,,0.00,meteohub,2013-03-01 18:40:00,
2013-03-01 13:45:00,28.6,22.8,-100.00,West,268,4.0,8.0,79,0.00,,,0.00,meteohub,2013-03-01 18:45:00,
2013-03-01 13:50:00,28.6,22.6,-100.00,WNW,288,2.0,6.0,78,0.00,,,0.00,meteohub,2013-03-01 18:50:00,
2013-03-01 13:55:00,28.6,22.3,-100.00,West,276,2.0,6.0,77,0.00,,,0.00,meteohub,2013-03-01 18:55:00,
2013-03-01 14:00:00,28.8,23.4,-100.00,WNW,297,2.0,6.0,80,0.00,,,0.00,meteohub,2013-03-01 19:00:00,
2013-03-01 14:06:00,28.9,23.0,-100.00,West,262,2.0,6.0,78,0.00,,,0.00,meteohub,2013-03-01 19:06:00,
2013-03-01 14:11:00,28.8,22.5,-100.00,WNW,283,6.0,6.0,77,0.00,,,0.00,meteohub,2013-03-01 19:11:00,
2013-03-01 14:16:00,28.8,23.0,-100.00,WNW,295,3.0,8.0,79,0.00,,,0.00,meteohub,2013-03-01 19:16:00,
2013-03-01 14:21:00,28.8,22.8,-100.00,WSW,248,3.0,8.0,78,0.00,,,0.00,meteohub,2013-03-01 19:21:00,
2013-03-01 14:26:00,28.9,22.6,-100.00,WSW,257,3.0,8.0,77,0.00,,,0.00,meteohub,2013-03-01 19:26:00,
2013-03-01 14:31:00,28.8,22.8,-100.00,NW,304,3.0,8.0,78,0.00,,,0.00,meteohub,2013-03-01 19:31:00,
2013-03-01 14:36:00,28.9,22.6,-100.00,NW,316,2.0,8.0,77,0.00,,,0.00,meteohub,2013-03-01 19:36:00,
2013-03-01 14:41:00,28.9,22.3,-100.00,WNW,288,5.0,8.0,76,0.00,,,0.00,meteohub,2013-03-01 19:41:00,
2013-03-01 14:46:00,29.1,22.5,-100.00,West,260,4.0,6.0,76,0.00,,,0.00,meteohub,2013-03-01 19:46:00,
2013-03-01 14:51:00,29.1,22.8,-100.00,West,278,3.0,6.0,77,0.00,,,0.00,meteohub,2013-03-01 19:51:00,
2013-03-01 14:56:00,29.3,23.0,-100.00,NW,309,2.0,6.0,77,0.00,,,0.00,meteohub,2013-03-01 19:56:00,
2013-03-01 15:01:00,29.5,22.8,-100.00,NW,314,1.0,6.0,76,0.00,,,0.00,meteohub,2013-03-01 20:01:00,
2013-03-01 15:06:00,29.5,22.8,-100.00,WNW,284,1.0,6.0,76,0.00,,,0.00,meteohub,2013-03-01 20:06:00,
2013-03-01 15:11:00,29.5,22.8,-100.00,WNW,300,5.0,5.0,76,0.00,,,0.00,meteohub,2013-03-01 20:11:00,
2013-03-01 15:16:00,29.5,22.8,-100.00,West,262,0.0,5.0,76,0.00,,,0.00,meteohub,2013-03-01 20:16:00,
2013-03-01 15:21:00,29.5,22.8,-100.00,WNW,291,4.0,5.0,76,0.00,,,0.00,meteohub,2013-03-01 20:21:00,
2013-03-01 15:26:00,29.7,22.6,-100.00,West,264,1.0,6.0,75,0.00,,,0.00,meteohub,2013-03-01 20:26:00,
2013-03-01 15:31:00,29.7,22.6,-100.00,WNW,297,3.0,6.0,75,0.00,,,0.00,meteohub,2013-03-01 20:31:00,
2013-03-01 15:36:00,29.8,22.8,-100.00,WNW,300,3.0,6.0,75,0.00,,,0.00,meteohub,2013-03-01 20:36:00,
2013-03-01 15:41:00,29.8,23.2,-100.00,NNW,329,3.0,7.0,76,0.00,,,0.00,meteohub,2013-03-01 20:41:00,
2013-03-01 15:46:00,29.8,22.3,-100.00,NW,311,4.0,7.0,73,0.00,,,0.00,meteohub,2013-03-01 20:46:00,
2013-03-01 15:51:00,29.8,22.6,-100.00,West,275,2.0,8.0,74,0.00,,,0.00,meteohub,2013-03-01 20:51:00,
2013-03-01 15:56:00,30.0,23.4,-100.00,NW,316,2.0,8.0,76,0.00,,,0.00,meteohub,2013-03-01 20:56:00,
2013-03-01 16:01:00,29.8,22.8,-100.00,NW,314,4.0,8.0,75,0.00,,,0.00,meteohub,2013-03-01 21:01:00,
2013-03-01 16:06:00,29.8,22.8,-100.00,WNW,291,1.0,6.0,75,0.00,,,0.00,meteohub,2013-03-01 21:06:00,
2013-03-01 16:11:00,30.0,23.0,-100.00,NW,321,5.0,6.0,75,0.00,,,0.00,meteohub,2013-03-01 21:11:00,
2013-03-01 16:16:00,30.0,23.0,-100.00,NW,310,2.0,6.0,75,0.00,,,0.00,meteohub,2013-03-01 21:16:00,
2013-03-01 16:21:00,30.0,23.7,-100.00,NW,316,3.0,6.0,77,0.00,,,0.00,meteohub,2013-03-01 21:21:00,
2013-03-01 16:26:00,30.0,23.7,-100.00,NW,318,4.0,6.0,77,0.00,,,0.00,meteohub,2013-03-01 21:26:00,
2013-03-01 16:31:00,30.0,23.4,-100.00,WNW,282,4.0,6.0,76,0.00,,,0.00,meteohub,2013-03-01 21:31:00,
2013-03-01 16:36:00,30.0,23.0,-100.00,NW,304,3.0,6.0,75,0.00,,,0.00,meteohub,2013-03-01 21:36:00,
2013-03-01 16:41:00,30.0,23.0,-100.00,WNW,289,2.0,6.0,75,0.00,,,0.00,meteohub,2013-03-01 21:41:00,
2013-03-01 16:46:00,29.8,23.2,-100.00,NW,307,5.0,7.0,76,0.00,,,0.00,meteohub,2013-03-01 21:46:00,
2013-03-01 16:51:00,29.8,23.5,-100.00,NW,319,2.0,8.0,77,0.00,,,0.00,meteohub,2013-03-01 21:51:00,
2013-03-01 16:57:00,29.8,23.2,-100.00,SW,228,5.0,8.0,76,0.00,,,0.00,meteohub,2013-03-01 21:57:00,
2013-03-01 17:02:00,29.8,23.9,-100.00,WNW,290,2.0,8.0,78,0.00,,,0.00,meteohub,2013-03-01 22:02:00,
2013-03-01 17:07:00,29.8,24.1,-100.00,WNW,289,1.0,7.0,79,0.00,,,0.00,meteohub,2013-03-01 22:07:00,
2013-03-01 17:12:00,29.8,24.1,-100.00,WNW,288,2.0,7.0,79,0.00,,,0.00,meteohub,2013-03-01 22:12:00,
2013-03-01 17:17:00,29.8,23.9,-100.00,WNW,300,4.0,6.0,78,0.00,,,0.00,meteohub,2013-03-01 22:17:00,
2013-03-01 17:22:00,29.8,23.9,-100.00,SW,236,3.0,6.0,78,0.00,,,0.00,meteohub,2013-03-01 22:22:00,
2013-03-01 17:27:00,29.7,23.7,-100.00,WNW,296,2.0,6.0,78,0.00,,,0.00,meteohub,2013-03-01 22:27:00,
2013-03-01 17:32:00,29.7,23.7,-100.00,WNW,298,3.0,5.0,78,0.00,,,0.00,meteohub,2013-03-01 22:32:00,
2013-03-01 17:37:00,29.7,23.7,-100.00,WNW,301,2.0,5.0,78,0.00,,,0.00,meteohub,2013-03-01 22:37:00,
2013-03-01 17:42:00,29.7,23.4,-100.00,NW,311,3.0,5.0,77,0.00,,,0.00,meteohub,2013-03-01 22:42:00,
2013-03-01 17:47:00,29.7,23.7,-100.00,WNW,284,2.0,5.0,78,0.00,,,0.00,meteohub,2013-03-01 22:47:00,
2013-03-01 17:52:00,29.5,23.5,-100.00,WSW,254,2.0,5.0,78,0.00,,,0.00,meteohub,2013-03-01 22:52:00,
2013-03-01 17:57:00,29.5,23.5,-100.00,NW,317,3.0,6.0,78,0.00,,,0.00,meteohub,2013-03-01 22:57:00,
2013-03-01 18:02:00,29.3,23.4,-100.00,NW,307,2.0,7.0,78,0.00,,,0.00,meteohub,2013-03-01 23:02:00,
2013-03-01 18:07:00,29.3,23.5,-100.00,WNW,295,1.0,7.0,79,0.00,,,0.00,meteohub,2013-03-01 23:07:00,
2013-03-01 18:12:00,29.3,23.4,-100.00,West,265,3.0,7.0,78,0.00,,,0.00,meteohub,2013-03-01 23:12:00,
2013-03-01 18:17:00,29.1,23.4,-100.00,WNW,298,5.0,6.0,79,0.00,,,0.00,meteohub,2013-03-01 23:17:00,
2013-03-01 18:22:00,29.1,23.2,-100.00,WNW,290,2.0,6.0,78,0.00,,,0.00,meteohub,2013-03-01 23:22:00,
2013-03-01 18:27:00,29.1,23.2,-100.00,West,281,2.0,6.0,78,0.00,,,0.00,meteohub,2013-03-01 23:27:00,
2013-03-01 18:32:00,28.9,23.2,-100.00,WNW,283,4.0,7.0,79,0.00,,,0.00,meteohub,2013-03-01 23:32:00,
2013-03-01 18:37:00,28.9,23.2,-100.00,WNW,302,1.0,7.0,79,0.00,,,0.00,meteohub,2013-03-01 23:37:00,
2013-03-01 18:42:00,28.9,23.2,-100.00,WNW,302,4.0,7.0,79,0.00,,,0.00,meteohub,2013-03-01 23:42:00,
2013-03-01 18:47:00,28.9,23.2,-100.00,West,276,2.0,7.0,79,0.00,,,0.00,meteohub,2013-03-01 23:47:00,
2013-03-01 18:52:00,28.9,23.0,-100.00,NW,307,4.0,6.0,78,0.00,,,0.00,meteohub,2013-03-01 23:52:00,
2013-03-01 18:57:00,28.9,23.2,-100.00,WNW,296,4.0,7.0,79,0.00,,,0.00,meteohub,2013-03-01 23:57:00,
2013-03-01 19:02:00,28.9,23.5,-100.00,WNW,302,1.0,7.0,80,0.00,,,0.00,meteohub,2013-03-02 00:02:00,
2013-03-01 19:07:00,28.8,22.8,-100.00,NW,311,4.0,7.0,78,0.00,,,0.00,meteohub,2013-03-02 00:07:00,
2013-03-01 19:12:00,28.8,23.0,-100.00,NW,304,5.0,7.0,79,0.00,,,0.00,meteohub,2013-03-02 00:12:00,
2013-03-01 19:17:00,28.8,23.0,-100.00,WNW,302,6.0,7.0,79,0.00,,,0.00,meteohub,2013-03-02 00:17:00,
2013-03-01 19:22:00,28.8,22.8,-100.00,NW,304,4.0,7.0,78,0.00,,,0.00,meteohub,2013-03-02 00:22:00,
2013-03-01 19:27:00,28.8,23.0,-100.00,NW,307,1.0,7.0,79,0.00,,,0.00,meteohub,2013-03-02 00:27:00,
2013-03-01 19:32:00,28.8,23.0,-100.00,WNW,282,2.0,7.0,79,0.00,,,0.00,meteohub,2013-03-02 00:32:00,
2013-03-01 19:37:00,28.8,22.8,-100.00,NW,318,6.0,7.0,78,0.00,,,0.00,meteohub,2013-03-02 00:37:00,
2013-03-01 19:42:00,28.8,23.0,-100.00,NW,316,4.0,10.0,79,0.00,,,0.00,meteohub,2013-03-02 00:42:00,
2013-03-01 19:47:00,28.8,23.0,-100.00,WNW,293,3.0,10.0,79,0.00,,,0.00,meteohub,2013-03-02 00:47:00,
2013-03-01 19:52:00,28.8,23.0,-100.00,NNW,328,3.0,10.0,79,0.00,,,0.00,meteohub,2013-03-02 00:52:00,
2013-03-01 19:57:00,28.6,21.9,-100.00,WNW,292,3.0,6.0,76,0.00,,,0.00,meteohub,2013-03-02 00:57:00,
2013-03-01 20:02:00,28.6,22.6,-100.00,NW,313,2.0,8.0,78,0.00,,,0.00,meteohub,2013-03-02 01:02:00,
2013-03-01 20:08:00,28.6,22.3,-100.00,NW,311,4.0,8.0,77,0.00,,,0.00,meteohub,2013-03-02 01:08:00,
2013-03-01 20:12:00,28.6,22.6,-100.00,NW,309,4.0,8.0,78,0.00,,,0.00,meteohub,2013-03-02 01:12:00,
2013-03-01 20:18:00,28.6,22.6,-100.00,WNW,292,4.0,7.0,78,0.00,,,0.00,meteohub,2013-03-02 01:18:00,
2013-03-01 20:23:00,28.4,22.1,-100.00,NW,311,2.0,7.0,77,0.00,,,0.00,meteohub,2013-03-02 01:23:00,
2013-03-01 20:28:00,28.4,22.5,-100.00,NW,304,3.0,8.0,78,0.00,,,0.00,meteohub,2013-03-02 01:28:00,
2013-03-01 20:33:00,28.4,22.6,-100.00,NW,311,4.0,8.0,79,0.00,,,0.00,meteohub,2013-03-02 01:33:00,
2013-03-01 20:38:00,28.2,22.3,-100.00,NW,307,3.0,8.0,78,0.00,,,0.00,meteohub,2013-03-02 01:38:00,
2013-03-01 20:43:00,28.2,22.3,-100.00,NW,314,2.0,8.0,78,0.00,,,0.00,meteohub,2013-03-02 01:43:00,
2013-03-01 20:48:00,28.2,22.3,-100.00,WNW,287,4.0,6.0,78,0.00,,,0.00,meteohub,2013-03-02 01:48:00,
2013-03-01 20:53:00,28.4,22.6,-100.00,NW,317,2.0,7.0,79,0.00,,,0.00,meteohub,2013-03-02 01:53:00,
2013-03-01 20:58:00,28.2,22.3,-100.00,NW,325,4.0,7.0,78,0.00,,,0.00,meteohub,2013-03-02 01:58:00,
2013-03-01 21:03:00,28.2,22.6,-100.00,WNW,288,4.0,7.0,79,0.00,,,0.00,meteohub,2013-03-02 02:03:00,
2013-03-01 21:08:00,28.2,22.6,-100.00,NW,305,2.0,7.0,79,0.00,,,0.00,meteohub,2013-03-02 02:08:00,
2013-03-01 21:13:00,28.2,22.6,-100.00,WNW,303,5.0,7.0,79,0.00,,,0.00,meteohub,2013-03-02 02:13:00,
2013-03-01 21:18:00,28.2,22.3,-100.00,NW,313,3.0,7.0,78,0.00,,,0.00,meteohub,2013-03-02 02:18:00,
2013-03-01 21:23:00,28.2,22.6,-100.00,NW,314,2.0,7.0,79,0.00,,,0.00,meteohub,2013-03-02 02:23:00,
2013-03-01 21:28:00,28.2,22.3,-100.00,NW,314,4.0,7.0,78,0.00,,,0.00,meteohub,2013-03-02 02:28:00,
2013-03-01 21:33:00,28.2,22.6,-100.00,NW,308,4.0,7.0,79,0.00,,,0.00,meteohub,2013-03-02 02:33:00,
2013-03-01 21:38:00,28.0,22.5,-100.00,NW,321,2.0,7.0,79,0.00,,,0.00,meteohub,2013-03-02 02:38:00,
2013-03-01 21:43:00,28.0,22.5,-100.00,NW,309,5.0,8.0,79,0.00,,,0.00,meteohub,2013-03-02 02:43:00,
2013-03-01 21:48:00,28.0,22.1,-100.00,NNW,328,4.0,8.0,78,0.00,,,0.00,meteohub,2013-03-02 02:48:00,
2013-03-01 21:53:00,28.0,22.5,-100.00,NW,311,6.0,8.0,79,0.00,,,0.00,meteohub,2013-03-02 02:53:00,
2013-03-01 21:58:00,27.9,21.9,-100.00,NW,310,3.0,8.0,78,0.00,,,0.00,meteohub,2013-03-02 02:58:00,
2013-03-01 22:03:00,27.9,22.3,-100.00,NW,323,4.0,9.0,79,0.00,,,0.00,meteohub,2013-03-02 03:03:00,
2013-03-01 22:08:00,27.7,22.1,-100.00,NW,322,5.0,9.0,79,0.00,,,0.00,meteohub,2013-03-02 03:08:00,
2013-03-01 22:13:00,27.5,21.6,-100.00,NNW,330,8.0,9.0,78,0.00,,,0.00,meteohub,2013-03-02 03:13:00,
2013-03-01 22:18:00,27.3,21.7,-100.00,NW,309,7.0,9.0,79,0.00,,,0.00,meteohub,2013-03-02 03:18:00,
2013-03-01 22:23:00,27.1,21.2,-100.00,NW,313,5.0,11.0,78,0.00,,,0.00,meteohub,2013-03-02 03:23:00,
2013-03-01 22:28:00,27.1,21.6,-100.00,NW,320,5.0,9.0,79,0.00,,,0.00,meteohub,2013-03-02 03:28:00,
2013-03-01 22:33:00,27.0,21.4,-100.00,NW,326,4.0,9.0,79,0.00,,,0.00,meteohub,2013-03-02 03:33:00,
2013-03-01 22:38:00,27.0,21.4,-100.00,WNW,295,6.0,9.0,79,0.00,,,0.00,meteohub,2013-03-02 03:38:00,
2013-03-01 22:44:00,26.8,21.2,-100.00,NW,318,6.0,10.0,79,0.00,,,0.00,meteohub,2013-03-02 03:44:00,
2013-03-01 22:49:00,26.6,21.0,-100.00,NW,307,6.0,10.0,79,0.00,,,0.00,meteohub,2013-03-02 03:49:00,
2013-03-01 22:54:00,26.4,21.0,-100.00,NW,307,3.0,9.0,80,0.00,,,0.00,meteohub,2013-03-02 03:54:00,
2013-03-01 22:59:00,26.4,21.0,-100.00,NW,326,4.0,9.0,80,0.00,,,0.00,meteohub,2013-03-02 03:59:00,
2013-03-01 23:04:00,26.4,21.0,-100.00,WNW,300,5.0,10.0,80,0.00,,,0.00,meteohub,2013-03-02 04:04:00,
2013-03-01 23:09:00,26.4,21.0,-100.00,WNW,301,4.0,10.0,80,0.00,,,0.00,meteohub,2013-03-02 04:09:00,
2013-03-01 23:14:00,26.2,20.7,-100.00,NW,311,3.0,10.0,79,0.00,,,0.00,meteohub,2013-03-02 04:14:00,
2013-03-01 23:19:00,26.2,20.8,-100.00,WNW,302,6.0,8.0,80,0.00,,,0.00,meteohub,2013-03-02 04:19:00,
2013-03-01 23:24:00,26.2,20.8,-100.00,NW,322,4.0,8.0,80,0.00,,,0.00,meteohub,2013-03-02 04:24:00,
2013-03-01 23:29:00,26.1,20.7,-100.00,NW,306,6.0,9.0,80,0.00,,,0.00,meteohub,2013-03-02 04:29:00,
2013-03-01 23:34:00,26.1,20.7,-100.00,WNW,303,4.0,9.0,80,0.00,,,0.00,meteohub,2013-03-02 04:34:00,
2013-03-01 23:39:00,26.1,21.4,-100.00,NW,319,3.0,9.0,82,0.00,,,0.00,meteohub,2013-03-02 04:39:00,
2013-03-01 23:44:00,25.9,20.5,-100.00,WNW,301,8.0,9.0,80,0.00,,,0.00,meteohub,2013-03-02 04:44:00,
2013-03-01 23:49:00,25.7,20.7,-100.00,NW,307,3.0,9.0,81,0.00,,,0.00,meteohub,2013-03-02 04:49:00,
2013-03-01 23:54:00,25.7,20.7,-100.00,NNW,329,3.0,9.0,81,0.00,,,0.00,meteohub,2013-03-02 04:54:00,
2013-03-01 23:59:00,25.5,20.3,-100.00,NW,321,3.0,11.0,80,0.00,,,0.00,meteohub,2013-03-02 04:59:00,